Regional Weather Roundup
Issued by NWS

Home | Current Version | Previous Version | Graphics & Text | Print | Product List | Glossary Off
Versions: 1 2 3 4 5 6 7 8 9 10 11 12 13 14 15 16 17 18 19 20 21 22 23 24 25 26 27 28 29 30 31 32 33 34 35 36 37 38 39 40 41 42 43 44 45 46 47 48 49 50

000
ASUS43 KMPX 192110
RWRMN
WEATHER ROUNDUP FOR MINNESOTA
NATIONAL WEATHER SERVICE TWIN CITIES/CHANHASSEN MN
400 PM CDT SAT AUG 19 2017


NOTE: "FAIR" INDICATES FEW OR NO CLOUDS BELOW 12,000 FEET WITH NO
SIGNIFICANT WEATHER AND/OR OBSTRUCTIONS TO VISIBILITY. N/A MEANS
CURRENT SKY AND/OR WEATHER CONDITIONS ARE NOT AVAILABLE.

MNZ060>063-068>070-192200-
   Twin Cities Metro

CITY           SKY/WX    TMP DP  RH WIND       PRES   REMARKS
TWIN CITIES    MOSUNNY   79  61  53 SW9       29.91F
ST PAUL        SUNNY     79  62  56 VRB7      29.91F
CRYSTAL        SUNNY     79  55  43 S3        29.89F
BLAINE         SUNNY     81  57  44 SW5       29.90F
LAKEVILLE      SUNNY     77  63  61 S3        29.92F
EDEN PRAIRIE   SUNNY     80  63  55 S7        29.90F
SOUTH ST PAUL  SUNNY     79  59  50 S6        29.91F
LAKE ELMO      FAIR      79  63  57 S6        29.92F
$$
MNZ001>005-007-008-013>017-022>024-027-028-192200-
   Northwest Minnesota

CITY           SKY/WX    TMP DP  RH WIND       PRES   REMARKS
BEMIDJI        SUNNY     81  54  39 SW9       29.84S
HALLOCK        SUNNY     88  54  31 S18G26    29.71F
ROSEAU         SUNNY     86  57  37 S14G20    29.75F
WARROAD        SUNNY     82  61  47 S10G17    29.77S
THIEF RVR FALL SUNNY     83  56  39 S16G24    29.79F
CROOKSTON      SUNNY     84  55  37 SW17G23   29.77F
FOSSTON        SUNNY     82  55  39 S15       29.82F
DETROIT LAKES  SUNNY     79  59  50 S12       29.86S
MOORHEAD       SUNNY     81  59  47 S12G21    29.81F
PARK RAPIDS    SUNNY     81  57  43 SW9       29.85F
MAHNOMEN       FAIR      79  60  51 SW14G20   29.83S
$$
MNZ006-009>011-018-025>026-192200-
   North Central Minnesota

CITY           SKY/WX    TMP DP  RH WIND       PRES   REMARKS
BAUDETTE       SUNNY     83  54  36 SW7       29.78F
FLAG ISLAND    SUNNY     81  63  54 S5        29.74F
INTL FALLS     SUNNY     81  54  39 W7        29.80F
WASKISH        MOSUNNY   82  55  39 S7G16     29.81F
BIG FORK       MOSUNNY   82  55  39 S6        29.85S
LONGVILLE      SUNNY     81  57  44 S7        29.86F
GRAND RAPIDS   MOSUNNY   78  58  49 SW9       29.88F
CRANE LAKE     MOSUNNY   75  57  53 CALM      29.84F
ORR            SUNNY     81  52  36 W8        29.82S
COOK           MOSUNNY   79  54  41 W8        29.85F
WALKER         FAIR      79  57  47 S7        29.85F
$$
MNZ012-019>021-037-192200-
   Northeast Minnesota

CITY           SKY/WX    TMP DP  RH WIND       PRES   REMARKS
DULUTH         MOSUNNY   79  58  48 SW13G20   29.88S
ELY            MOSUNNY   79  54  41 W7        29.86S
HIBBING        SUNNY     77  56  48 SW7       29.86F
EVELETH        MOSUNNY   78  43  28 W9        29.88S
DULUTH HARBOR  SUNNY     82  63  51 SW13      29.85F
TWO HARBORS    SUNNY     81  63  54 W7        29.84F
SILVER BAY     SUNNY     82  55  39 SW12      29.84S
GRAND MARAIS     N/A     71  63  75 W12       29.82S
G MARAIS ARPRT MOSUNNY   77  46  33 W7        29.88S
$$
MNZ029>031-032-039>041-046>048-054>057-064-192200-
   West Central Minnesota

CITY           SKY/WX    TMP DP  RH WIND       PRES   REMARKS
FERGUS FALLS   SUNNY     79  61  53 S14       29.83F
WHEATON        SUNNY     79  61  53 S12       29.85F
MORRIS         SUNNY     79  63  57 S12       29.86F
ALEXANDRIA     SUNNY     78  60  53 S13       29.90F
ELBOW LAKE     FAIR      77  64  63 S14       29.86F HAZE
WADENA         SUNNY     79  55  44 S12       29.86F
GLENWOOD       SUNNY     79  61  53 S10       29.90S
APPLETON       SUNNY     81  59  47 S12       29.86F
BENSON         SUNNY     79  61  53 SW13      29.89F
ORTONVILLE     SUNNY     79  61  53 MISG      29.85F
MADISON        SUNNY     82  64  54 S10       29.86F
WILLMAR        FAIR      79  63  57 S6        29.90F
$$
MNZ033>034-036-042>043-049>051-058-059-192200-
   Central Minnesota

CITY           SKY/WX    TMP DP  RH WIND       PRES   REMARKS
ST CLOUD       SUNNY     79  61  53 S9        29.89F
SAUK CENTRE    FAIR      78  60  54 S10       29.89F
PAYNESVILLE    SUNNY     78  62  57 S10       29.91S
AITKIN         MOSUNNY   79  61  53 S10       29.87F
PINE RIVER     SUNNY     75  57  53 S5        29.90F
BRAINERD       MOSUNNY   78  60  53 S12       29.87F
STAPLES        SUNNY     79  57  47 S9        29.87F
LONG PRAIRIE   FAIR      75  59  57 SE8       29.90S
LITTLE FALLS   SUNNY     79  55  44 S9        29.89S
LITCHFIELD     SUNNY     79  63  57 SE8       29.91S
BUFFALO        SUNNY     78  58  50 S8        29.91F
MAPLE LAKE     SUNNY     79  63  58 S6        29.91F
HUTCHINSON     SUNNY     77  62  59 S7        29.92F
$$
MNZ037-044-045-052-053-192200-
   East Central Minnesota

CITY           SKY/WX    TMP DP  RH WIND       PRES   REMARKS
PRINCETON      SUNNY     82  57  42 S7        29.90S
MORA           SUNNY     75  55  50 S7        29.91S
CAMBRIDGE      SUNNY     81  61  50 SE6       29.90F
RUSH CITY      SUNNY     78  59  51 S6        29.90F
MOOSE LAKE     MOSUNNY   77  61  57 SW3       29.87S
HINCKLEY       FAIR      77  61  57 SW8       29.90S
CLOQUET        MOSUNNY   79  55  44 SW7       29.88S
MCGREGOR       MOSUNNY   77  61  57 S12       29.89S
$$
MNZ071>073-080-081-089-090-097-098-192200-
   Southwest Minnesota

CITY           SKY/WX    TMP DP  RH WIND       PRES   REMARKS
MONTEVIDEO     SUNNY     82  64  54 S8        29.88F
GRANITE FALLS  SUNNY     80  64  58 S9        29.90F
CANBY          SUNNY     81  60  48 CALM      29.88F
MARSHALL       SUNNY     80  63  55 S14       29.89F
REDWOOD FALLS  SUNNY     79  62  56 S12       29.89F
OLIVIA         SUNNY     77  63  61 S9        29.90S
PIPESTONE      SUNNY     79  63  57 S9        29.91F
WINDOM         SUNNY     79  61  53 S10       29.93S
WORTHINGTON    SUNNY     78  64  61 SE7       29.93F
JACKSON        MOSUNNY   77  64  65 CALM      29.94F
TRACY          SUNNY     79  65  62 S7        29.91F
SLAYTON        SUNNY     78  58  50 S10       29.93F
$$
MNZ065>067-074>077-082>085-091>093-192200-
   South Central Minnesota

CITY           SKY/WX    TMP DP  RH WIND       PRES   REMARKS
MANKATO        SUNNY     77  64  64 S7        29.92F
NEW ULM        SUNNY     79  63  57 S6        29.91F
ST JAMES       SUNNY     79  63  57 S7        29.93F
FAIRMONT       MOSUNNY   78  65  63 MISG      29.93F
GLENCOE        SUNNY     79  67  66 S5        29.91F
FARIBAULT      SUNNY     79  63  57 S7        29.93S
OWATONNA       SUNNY     79  63  57 SW8       29.93F
WASECA         SUNNY     77  63  61 S7        29.94F
ALBERT LEA     MOSUNNY   81  64  57 SW6       29.94S
$$
MNZ078>079-086>088-094>096-192200-
   Southeast Minnesota

CITY           SKY/WX    TMP DP  RH WIND       PRES   REMARKS
ROCHESTER      MOSUNNY   77  65  66 VRB7      29.95F
RED WING       MOSUNNY   81  55  41 SW6       29.91F
STANTON        SUNNY     79  62  56 S6        29.91F
DODGE CENTER   SUNNY     75  63  64 S5        29.95S
WINONA         SUNNY     79  59  50 SW5       29.94S
AUSTIN         SUNNY     77  63  61 SW6       29.94F
PRESTON        MOSUNNY   76  59  55 S8        29.96F
$$
ABBREVIATIONS USED IN REMARKS
   TC - TEMPERATURES IN CELSIUS
  WCI - WIND CHILL INDEX
   HX - HEAT INDEX
  VSB - VISIBILITY
$$



USA.gov is the U.S. government's official web portal to all federal, state and local government web resources and services.